Sidney, NE

1:36 AM MDT on July 22, 2017 (GMT -0600)
Sidney Municipal

Weather History for KSNY - November, 2013

Change the Weather History Date:

Wednesday, November 20, 2013

  Actual Average Record
Temperature  
Mean Temperature 42 °F 36 °F  
Max Temperature 63 °F 49 °F 74 °F (1989)
Min Temperature 21 °F 22 °F -8 °F (1985)
Degree Days  
Heating Degree Days 23 30  
Month to date heating degree days 477 502  
Since 1 July heating degree days 1138 1105  
Cooling Degree Days 0 0  
Month to date cooling degree days 0 0  
Year to date cooling degree days 918 830  
Moisture  
Dew Point 27 °F    
Average Humidity 55    
Maximum Humidity 85    
Minimum Humidity 25    
Precipitation  
Precipitation 0.00 in 0.02 in 0.50 in (1975)
Month to date precipitation 0.34 0.39  
Year to date precipitation 16.81 17.82  
Sea Level Pressure  
Sea Level Pressure 29.85 in    
Wind  
Wind Speed 13 mph (NNW)    
Max Wind Speed 33 mph    
Max Gust Speed 39 mph    
Visibility 9 miles    
Events      
T = Trace of Precipitation, MM = Missing Value Source: NWS Daily Summary

Daily Weather History Graph

Daily Weather History Graph

Search for Another Location

Airport or City:

Trip Planner

Search our weather history database for the weather conditions in past years. The results will help you decide how hot, cold, wet, or windy it might be!

Date:

Astronomy

Nov. 20, 2013 Rise Set
Actual Time 6:45 AM MST 4:29 PM MST
Civil Twilight 6:15 AM MST 4:59 PM MST
Nautical Twilight 5:42 AM MST 5:32 PM MST
Astronomical Twilight 5:09 AM MST 6:05 PM MST
Moon 7:13 PM MST (11/20) 9:12 AM MST (11/20)
Length of Visible Light 10h 43m
Length of Day
9h 43m
Waning Gibbous, 91% of the Moon is Illuminated
Nov 20
Waning Gibbous
Nov 25
Last Quarter
Dec 2
New
Dec 9
First Quarter
Dec 17
Full

Hourly Weather History & Observations

Time (MST) Temp. Windchill Dew Point Humidity Pressure Visibility Wind Dir Wind Speed Gust Speed Precip Events Conditions
12:53 AM 43.0 °F 36.8 °F 28.9 °F 58% 29.69 in 10.0 mi WNW 11.5 mph - N/A   Clear
1:53 AM 43.0 °F 36.8 °F 28.9 °F 58% 29.70 in 10.0 mi WNW 11.5 mph - N/A   Clear
2:53 AM 39.0 °F 34.8 °F 28.0 °F 65% 29.72 in 10.0 mi NNW 5.8 mph - N/A   Partly Cloudy
3:53 AM 41.0 °F 34.3 °F 28.9 °F 62% 29.73 in 10.0 mi WNW 11.5 mph - N/A   Scattered Clouds
4:53 AM 43.0 °F 36.0 °F 28.9 °F 58% 29.76 in 10.0 mi NW 13.8 mph - N/A   Mostly Cloudy
5:53 AM 39.9 °F 31.8 °F 28.9 °F 65% 29.79 in 10.0 mi WNW 15.0 mph - N/A   Clear
6:53 AM 41.0 °F 33.5 °F 28.9 °F 62% 29.83 in 10.0 mi West 13.8 mph - N/A   Overcast
7:53 AM 42.1 °F 34.5 °F 28.9 °F 60% 29.83 in 10.0 mi West 15.0 mph - N/A   Clear
8:53 AM 48.9 °F - 28.9 °F 46% 29.83 in 10.0 mi WNW 16.1 mph - N/A   Clear
9:53 AM 53.1 °F - 28.0 °F 38% 29.81 in 10.0 mi WNW 18.4 mph - N/A   Clear
10:53 AM 55.9 °F - 28.9 °F 36% 29.76 in 10.0 mi NW 17.3 mph - N/A   Clear
11:53 AM 59.0 °F - 28.0 °F 31% 29.73 in 10.0 mi NNW 10.4 mph - N/A   Clear
12:53 PM 61.0 °F - 27.0 °F 27% 29.71 in 10.0 mi WNW 8.1 mph - N/A   Clear
1:53 PM 62.1 °F - 26.1 °F 25% 29.70 in 10.0 mi NW 13.8 mph 20.7 mph N/A   Mostly Cloudy
2:53 PM 60.1 °F - 26.1 °F 27% 29.72 in 10.0 mi NNE 6.9 mph - N/A   Scattered Clouds
3:53 PM 57.0 °F - 27.0 °F 32% 29.74 in 10.0 mi ENE 4.6 mph - N/A   Clear
4:53 PM 46.9 °F - 27.0 °F 46% 29.79 in 10.0 mi East 4.6 mph - N/A   Clear
5:53 PM 43.0 °F - 28.0 °F 56% 29.83 in 10.0 mi Calm Calm - N/A   Mostly Cloudy
6:53 PM 42.1 °F 40.2 °F 27.0 °F 55% 29.84 in 10.0 mi SE 3.5 mph - N/A   Scattered Clouds
7:53 PM 44.1 °F - 28.0 °F 53% 29.86 in 10.0 mi Calm Calm - N/A   Overcast
8:40 PM 39.2 °F 27.4 °F 30.2 °F 70% 29.94 in 10.0 mi North 29.9 mph 39.1 mph N/A   Overcast
8:46 PM 35.6 °F 22.7 °F 28.4 °F 75% 29.95 in 10.0 mi North 28.8 mph 39.1 mph N/A   Overcast
8:53 PM 33.1 °F 19.6 °F 27.0 °F 78% 29.97 in 9.0 mi North 27.6 mph 38.0 mph N/A   Overcast
9:00 PM 32.0 °F 18.1 °F 26.6 °F 80% 29.97 in 8.0 mi NNE 27.6 mph 36.8 mph N/A   Overcast
9:13 PM 30.2 °F 15.2 °F 26.6 °F 86% 29.99 in 7.0 mi NNE 29.9 mph 38.0 mph N/A   Overcast
9:53 PM 28.0 °F 13.3 °F 25.0 °F 88% 30.05 in 5.0 mi North 25.3 mph 29.9 mph N/A   Overcast
10:53 PM 26.1 °F 10.7 °F 21.9 °F 84% 30.09 in 7.0 mi North 25.3 mph 34.5 mph N/A   Overcast
11:06 PM 23.0 °F 6.3 °F 19.4 °F 86% 30.08 in 9.0 mi North 26.5 mph 32.2 mph N/A   Overcast
11:53 PM 21.9 °F 6.9 °F 18.0 °F 85% 30.12 in 9.0 mi North 19.6 mph 27.6 mph N/A   Overcast